GFSFLT2_con_3kmhel_336.txt.gz
Helicity
13 21 22 37 46 45 46 47 46 37 24 10 7 3 13 19 41 32 32 32 30 35 38 40 32 21 27 51 61 38 34 14
20 40 33 25 24 24 32 29 26 21 21 26 31 17 23 14 12 10 29 15 9 8 36 65 99 69 20 47 67 105 59 49
59 42 26 28 23 33 34 37 50 32 36 9 26 13 7 55 18 -11 13 49 15 -7 55 52 126 113 43 128 186 91 49 21
60 45 44 28 45 28 3 23 13 30 27 41 20 26 32 9 35 17 -15 54 50 1 23 38 54 72 82 71 87 166 35 -18
61 46 36 43 22 42 37 28 6 13 26 11 14 18 28 25 18 10 5 14 29 43 22 28 13 13 48 50 65 126 155 77
92 55 29 31 38 48 42 19 14 15 25 24 11 16 25 21 29 1 10 5 1 15 19 12 13 7 13 14 32 43 88 75
81 52 44 43 64 58 35 31 20 10 9 17 9 17 17 16 26 18 6 12 32 25 42 30 14 18 6 19 12 22 30 84
83 62 51 69 60 42 21 7 12 12 12 10 9 18 33 16 20 26 22 13 24 24 39 21 21 16 -2 10 8 31 43 37
94 80 54 57 35 26 25 17 11 16 13 5 5 4 12 17 12 16 29 15 28 37 47 40 58 33 27 28 8 22 73 34
62 86 60 31 46 23 33 21 29 20 23 17 17 7 7 15 15 15 20 18 15 21 28 33 55 26 28 16 -23 0 8 45
85 127 66 60 46 68 64 11 28 21 22 30 17 21 3 3 15 6 10 15 16 21 23 25 47 29 28 12 3 8 22 66
126 115 101 69 69 62 35 20 28 22 56 37 29 26 19 45 20 18 28 23 21 18 15 17 17 23 30 47 36 21 59 151
141 127 120 90 66 32 55 41 38 67 56 53 57 46 42 46 44 36 36 35 31 16 13 22 18 27 21 43 33 29 104 115
144 121 142 74 55 22 56 71 48 112 110 82 70 68 68 65 59 54 47 45 51 23 25 16 22 42 20 22 9 33 8 83
156 128 162 85 54 59 82 125 133 118 75 56 77 80 80 82 81 70 72 60 63 43 50 50 41 51 59 65 24 61 26 72
159 136 174 108 31 90 95 113 90 76 140 148 102 95 103 110 99 98 90 89 98 66 83 80 88 82 94 118 109 120 97 90
158 163 172 127 75 64 126 85 148 222 243 180 161 119 125 121 121 115 105 109 106 106 115 118 125 142 147 142 143 147 150 165
205 180 159 154 137 82 121 116 128 224 191 118 115 115 94 119 131 137 134 152 143 147 153 150 166 178 184 174 183 168 165 177
266 164 179 166 161 140 125 147 151 213 187 131 140 131 129 301 223 206 193 180 168 182 187 167 182 202 184 172 173 177 186 213
298 180 133 188 185 170 127 173 156 171 175 255 250 257 335 302 279 222 197 183 170 189 193 165 164 176 145 122 136 118 132 164

GFSFLT2_con_3kmhel_339.txt.gz
Helicity
4 -2 21 28 33 53 58 61 56 48 41 23 18 24 21 20 23 40 42 29 55 110 116 156 185 89 120 186 216 67 38 44
9 -7 17 17 18 38 54 64 60 60 39 29 31 41 66 30 16 37 82 38 41 73 57 93 142 176 151 174 148 74 46 34
48 28 41 21 10 9 18 32 35 25 26 32 39 40 37 33 27 5 75 86 35 42 62 82 50 67 101 135 169 80 59 15
64 25 18 20 17 -7 -25 -2 41 59 36 42 46 63 55 38 49 34 27 57 73 65 71 46 42 32 44 75 127 79 37 43
70 56 42 33 30 7 -6 9 29 54 52 36 50 57 74 69 23 26 38 53 50 74 90 71 29 35 15 42 49 30 -7 16
62 47 76 53 66 53 29 28 33 41 60 60 51 49 48 56 37 11 23 31 51 49 58 80 86 18 15 32 17 9 -8 9
62 59 88 84 99 66 49 37 33 42 48 38 35 40 19 28 57 51 27 12 51 59 74 95 100 54 44 88 30 13 18 -5
95 91 77 84 78 60 41 33 30 26 25 20 26 42 24 31 55 70 22 17 31 38 60 75 83 51 44 64 24 38 16 12
124 93 81 72 51 42 26 20 19 25 26 21 25 44 38 26 42 56 3 5 33 42 60 65 55 52 63 45 42 57 54 15
100 88 65 51 59 54 39 25 21 33 34 24 34 59 35 21 32 43 -1 10 28 29 34 43 39 40 57 71 62 66 42 63
94 91 61 62 63 59 61 55 53 54 46 46 45 49 53 26 27 40 17 11 15 12 30 28 21 44 31 51 78 84 105 143
157 106 87 92 89 83 45 52 77 87 62 72 65 50 63 59 47 55 36 20 19 13 7 21 20 31 20 41 46 11 2 84
187 151 108 111 93 69 43 51 107 101 87 90 82 79 76 81 65 72 65 37 34 17 -0 6 19 44 16 34 25 53 8 62
228 179 140 106 76 26 36 51 119 137 132 104 91 94 90 97 87 89 90 62 69 47 31 16 15 43 30 27 2 -0 21 43
244 211 155 115 49 43 70 202 220 168 141 116 96 100 110 112 106 102 118 86 77 62 46 53 41 55 110 88 43 59 -12 72
271 251 185 103 62 81 176 204 161 140 169 124 128 118 114 119 113 112 132 111 100 73 72 77 107 113 108 135 156 174 93 68
268 268 229 127 74 89 130 138 150 236 272 185 157 125 109 113 129 130 130 109 102 110 110 119 145 164 163 152 161 157 158 193
316 267 229 158 86 108 139 92 237 251 224 171 114 93 129 154 159 154 133 138 135 136 140 148 165 179 193 208 199 160 139 155
298 242 222 177 125 105 129 102 191 238 174 117 99 166 183 219 215 203 166 169 171 171 169 161 160 176 177 175 161 154 143 150
275 232 181 199 191 134 120 180 182 165 205 297 343 279 278 294 272 227 207 184 170 172 185 175 157 169 157 157 169 155 150 135

GFSFLT2_con_3kmhel_342.txt.gz
Helicity
18 17 37 52 57 57 50 66 65 46 31 49 58 64 55 60 68 93 61 75 93 97 84 87 99 117 102 80 135 150 145 165
-1 18 28 34 24 32 45 51 46 35 46 63 49 34 42 56 85 99 106 91 97 102 106 78 54 74 113 64 92 124 114 116
-5 19 18 14 28 21 27 47 50 46 53 69 64 57 51 53 58 83 106 113 127 130 108 101 92 85 62 58 40 23 22 16
42 27 22 9 16 6 27 49 48 50 66 77 69 74 53 38 53 74 85 91 108 113 121 123 91 104 118 76 -11 -29 -24 -27
80 68 44 13 13 17 23 38 55 67 63 65 74 69 49 43 38 29 24 49 49 71 85 74 69 75 105 90 55 21 -19 -24
60 72 81 65 57 12 24 47 51 60 55 64 49 50 57 44 32 32 29 20 55 67 75 79 78 84 88 103 76 33 21 -9
67 76 102 84 84 54 40 45 49 43 54 59 42 44 48 46 50 44 43 43 52 54 59 62 72 81 66 70 79 88 34 8
83 98 79 82 88 63 40 27 38 52 60 52 54 38 42 41 38 38 40 29 23 24 23 31 49 68 86 89 68 91 88 21
96 91 60 76 71 50 31 37 44 58 67 66 56 47 43 38 28 33 23 20 23 29 35 31 56 75 83 67 86 113 140 152
77 81 67 76 43 30 31 40 51 57 81 82 63 55 39 48 39 33 14 19 18 11 8 11 33 49 66 60 48 73 112 200
111 91 83 61 41 40 43 57 57 66 74 80 66 65 60 58 54 35 27 37 40 25 15 -6 9 34 32 47 30 39 68 125
119 103 88 66 51 68 88 89 72 82 84 83 71 70 76 76 69 62 53 52 51 31 35 26 15 26 24 50 39 34 101 87
153 140 103 103 88 83 95 114 94 98 89 101 91 79 87 103 89 83 80 67 45 42 26 40 44 44 29 32 42 68 82 44
211 145 155 119 97 82 89 124 100 108 99 103 103 103 99 111 115 108 111 99 92 80 63 31 20 36 28 41 37 50 80 87
250 183 170 154 108 120 136 160 201 155 128 112 108 109 100 108 120 120 119 107 98 85 75 64 39 41 98 99 76 82 54 100
280 204 177 135 152 157 147 169 200 143 151 131 126 101 86 89 110 122 117 97 103 82 75 58 76 89 118 164 173 176 120 101
302 245 180 131 157 161 179 194 181 166 212 197 134 79 78 93 115 120 113 87 69 93 97 97 93 129 163 172 183 181 199 238
319 241 148 104 128 166 188 144 187 240 246 203 142 139 128 118 128 108 90 79 93 109 112 131 151 159 156 146 151 141 167 212
283 208 112 67 127 132 171 176 180 207 225 179 196 163 154 152 133 121 114 128 146 162 182 187 200 211 204 178 176 215 247 222
232 169 94 60 101 107 136 192 235 300 273 256 248 285 277 260 242 208 221 255 257 293 308 315 332 322 352 371 341 375 335 245

GFSFLT2_con_3kmhel_345.txt.gz
Helicity
43 55 52 61 73 89 81 61 50 54 68 74 85 87 88 93 109 105 99 107 114 135 120 111 77 53 87 102 122 145 108 116
18 42 48 42 41 59 52 54 57 67 59 42 54 42 56 76 87 95 96 119 118 115 126 151 134 126 94 66 71 77 78 87
3 10 20 34 41 44 47 57 72 83 78 97 77 63 69 57 71 83 76 90 101 125 121 117 112 88 87 91 65 -2 -23 -23
-2 12 16 6 20 36 49 55 56 55 57 68 60 52 44 38 44 59 72 65 71 81 93 87 81 65 51 45 34 32 16 -12
8 19 7 7 21 18 32 48 57 65 66 59 48 39 38 36 29 39 40 57 53 63 68 66 82 86 85 72 51 32 15 4
22 27 36 5 10 10 26 52 54 67 57 52 44 44 50 42 39 47 50 45 52 56 55 55 78 83 70 66 63 46 11 -4
46 51 35 35 37 10 29 41 51 44 60 46 33 44 38 31 33 30 28 11 19 28 37 51 67 64 73 83 104 88 68 31
76 93 81 71 41 15 30 37 44 57 70 55 40 34 29 30 35 33 31 14 3 2 15 33 45 38 62 86 81 96 127 130
97 115 92 87 61 49 36 35 53 72 65 64 46 44 37 33 30 34 30 15 17 21 19 42 67 44 53 56 72 97 141 184
90 115 101 85 62 51 49 51 65 73 65 65 58 49 43 43 40 46 29 32 25 24 37 44 54 55 40 52 75 105 138 180
105 130 110 94 77 69 66 65 70 63 70 75 68 56 54 53 53 47 46 59 55 26 17 12 39 67 60 64 94 112 134 146
111 111 120 108 120 113 90 82 79 67 70 82 84 68 61 69 65 67 65 77 83 60 61 40 25 47 45 66 80 122 95 99
142 129 106 170 162 147 127 95 80 90 86 85 91 85 79 83 72 73 71 69 68 68 41 75 70 62 37 55 72 85 105 79
171 138 130 121 161 152 132 118 98 116 110 98 92 93 95 89 79 79 73 80 94 82 73 37 33 43 24 48 56 63 99 98
200 159 136 129 166 228 228 230 187 131 116 111 95 105 109 91 79 83 95 79 82 68 62 70 36 19 75 58 40 83 79 117
199 182 150 124 201 218 244 204 173 93 150 118 120 110 104 83 80 88 90 74 81 56 52 27 17 51 78 98 116 149 95 129
230 199 155 142 182 184 198 171 155 175 173 163 157 131 117 105 94 89 92 81 48 37 25 32 77 79 83 116 129 153 180 202
276 223 133 128 150 150 162 149 188 207 192 215 208 188 177 167 144 122 97 76 71 60 84 150 136 176 182 198 197 190 195 206
274 206 121 100 110 111 119 137 159 151 222 264 238 214 217 220 189 200 237 221 218 224 221 235 254 254 288 280 297 323 305 267
239 183 118 114 105 116 116 150 171 194 232 242 257 266 283 318 359 318 298 251 233 215 229 229 264 291 320 325 296 285 264 250